Location: Gälforsberget
(66.6500°N, 22.4167°E)
Time: 08:04:45
(UTC+00:00)

YAOGAN 11 - Pass Details

Date: 11 April 2026
Orbit: 599 x 647 km, 98.4° (Epoch: 14 May)

Event Time Altitude Azimuth Distance (km) Brightness Sun altitude
Rises 20:00:23 0° 21° (NNE) 2,865 7.9 -10.0°
Reaches altitude 10° 20:02:34 10° 22° (NNE) 1,958 7.1 -10.1°
Maximum altitude 20:06:49 88° 112° (ESE) 611 4.0 -10.4°
Drops below altitude 10° 20:11:04 10° 203° (SSW) 1,953 6.3 -10.6°
Sets 20:13:14 0° 203° (SSW) 2,858 7.2 -10.7°
